Wind_Speed
61 59 62 68 70 74 75 70 70 82 80 75 79 74 75 53 62 51 46 50 54 49 49 46 39 36 50 52 46 40 38 35 31 25 20 19 19 16 15 14 12 10 11 11 12
65 69 74 78 77 63 62 61 63 73 84 80 81 74 75 51 57 54 56 52 57 53 48 47 41 38 36 48 44 44 39 32 32 26 23 22 20 18 17 15 14 12 10 10 12
71 77 83 73 54 48 48 47 51 65 80 84 82 76 79 61 54 53 56 52 59 56 50 49 49 43 36 41 40 42 43 35 33 28 26 26 22 21 19 19 17 14 10 10 10
76 84 74 46 38 37 37 36 43 55 74 85 82 80 77 77 71 58 50 58 61 60 63 56 52 47 48 46 42 40 38 38 35 31 26 24 25 23 21 20 18 16 14 12 11
83 79 44 31 26 27 28 29 34 45 68 81 81 79 80 86 76 60 51 47 63 63 60 61 55 53 54 49 45 42 40 39 36 32 29 27 24 25 24 23 22 19 16 15 13
80 58 26 21 22 23 24 24 25 41 62 56 64 83 81 78 77 68 54 56 63 50 49 61 57 57 52 52 53 44 45 42 38 36 32 28 26 28 26 25 25 22 19 18 16
65 40 18 20 22 22 21 24 35 37 42 43 57 81 79 72 70 61 60 46 63 57 59 61 58 60 58 54 55 45 46 49 45 40 39 33 33 30 31 29 28 25 23 20 18
50 22 14 21 21 20 22 19 41 53 55 52 33 80 80 77 78 68 62 39 49 63 66 60 59 64 62 55 59 62 53 48 43 44 38 38 33 31 32 31 28 26 25 21 20
34 14 15 20 19 27 24 24 23 37 53 54 42 71 80 73 75 60 60 49 39 51 63 62 67 61 56 60 53 58 50 50 48 46 43 39 34 35 33 32 30 28 25 24 23
19 12 15 15 26 30 30 26 25 20 40 45 54 62 78 70 70 55 49 52 49 44 56 63 68 65 63 64 61 48 52 50 49 47 43 38 35 35 33 32 32 30 27 26 24
9 11 14 12 26 30 27 27 32 29 24 46 45 71 74 65 72 57 51 45 47 46 57 64 67 67 65 62 58 50 50 55 49 42 39 37 37 35 36 36 34 29 29 27 26
6 11 14 15 27 32 22 24 28 44 38 46 54 66 62 62 62 64 56 48 50 51 64 58 58 67 63 65 59 53 49 50 47 47 45 41 37 39 38 35 34 34 33 31 30
7 11 14 16 31 28 22 25 27 37 33 37 41 66 69 67 62 61 45 44 44 45 57 54 55 66 77 62 66 64 50 44 46 45 45 42 42 41 39 38 36 36 33 31 27
10 11 12 24 28 22 26 34 27 31 34 41 39 60 64 68 59 59 51 45 43 41 47 51 55 59 64 61 60 59 51 50 48 48 50 48 46 46 41 38 35 34 32 29 29
12 10 10 26 32 22 25 27 37 32 30 32 35 44 50 61 60 52 49 48 44 45 52 48 49 58 62 65 64 61 55 52 50 51 54 51 52 45 44 41 38 32 32 33 32
13 10 15 29 29 31 28 33 34 31 39 31 32 36 51 68 68 56 48 46 49 50 48 47 48 57 61 66 63 61 59 58 56 56 56 52 51 47 47 40 36 37 37 35 33
11 12 22 33 25 32 34 28 26 29 29 27 34 29 42 47 60 59 49 46 53 50 46 48 48 53 56 60 64 65 67 64 62 60 58 54 53 47 47 43 39 39 39 37 36
14 19 23 39 27 29 37 34 27 29 32 27 34 27 28 47 61 62 54 41 49 46 44 44 46 43 46 51 57 66 69 66 65 60 59 56 56 54 46 42 40 38 37 37 38
16 15 19 33 26 31 32 35 35 28 33 33 30 34 35 31 54 65 63 47 43 36 43 42 43 40 47 49 52 62 67 64 61 61 62 59 57 55 47 43 39 38 38 40 41
19 16 14 34 29 20 26 25 32 24 31 23 30 33 34 33 37 56 58 59 48 35 30 39 38 37 43 44 50 51 57 63 60 61 62 58 55 54 48 45 43 41 41 42 44
22 19 16 22 35 23 24 22 27 22 26 21 33 29 35 36 30 33 40 52 52 49 38 31 35 40 40 43 39 53 55 59 58 60 60 58 56 52 51 49 45 43 41 41 44
12 23 18 18 28 24 26 23 25 29 25 29 28 27 36 35 31 27 24 30 41 34 43 39 31 36 34 39 42 43 51 48 46 50 55 57 53 51 49 49 44 42 43 42 45
8 21 23 18 21 27 26 25 25 27 27 27 33 28 29 37 37 37 38 32 31 33 36 37 42 41 40 34 35 41 47 44 41 42 42 45 47 47 48 47 45 44 45 45 43
9 12 26 22 19 31 26 27 29 26 25 28 34 34 28 30 37 37 39 46 34 36 35 38 38 39 36 37 39 38 38 43 46 45 43 40 38 38 38 40 42 44 45 46 47
8 12 21 26 20 28 31 30 31 29 28 27 31 35 34 30 33 40 36 40 42 44 45 44 42 43 44 43 39 37 40 42 38 42 46 40 40 38 39 36 36 37 39 40 40
9 10 15 23 27 23 36 30 33 33 35 31 30 31 32 36 36 38 39 39 42 44 42 47 45 45 44 45 49 47 41 36 43 47 43 44 41 40 42 41 41 43 42 39 38
7 9 11 16 25 28 24 29 33 32 34 39 34 33 34 37 41 42 42 43 43 40 40 42 48 47 45 46 46 44 47 45 41 41 45 44 39 45 47 49 50 50 51 50 48
Wind_Direction
308 304 299 295 288 280 274 262 246 231 228 224 227 222 228 217 215 202 218 213 215 206 205 209 211 218 211 209 209 213 214 215 217 210 209 208 208 212 218 211 206 200 199 199 201
310 307 304 299 293 276 262 252 240 226 222 218 221 220 221 203 206 207 209 218 217 208 206 207 211 209 212 210 213 216 215 213 217 208 201 204 206 208 217 220 217 210 203 205 206
313 310 307 303 281 262 251 244 233 223 216 212 214 216 217 209 215 215 215 207 205 209 214 210 205 210 211 206 215 219 217 215 215 210 206 206 205 214 215 222 216 213 218 217 215
316 313 310 295 265 247 247 242 233 222 211 206 209 211 216 227 224 215 210 205 200 206 210 211 206 206 211 213 217 222 209 213 212 211 206 213 212 215 217 219 218 212 217 224 224
320 315 308 280 245 240 247 229 230 216 208 202 208 210 212 219 221 208 209 203 202 207 209 208 210 205 209 215 216 213 209 212 214 211 204 208 209 212 216 216 220 216 218 224 230
320 315 295 253 223 241 226 204 201 213 201 185 211 208 211 217 221 212 212 212 205 205 215 203 211 209 211 219 217 209 214 211 213 215 214 220 217 215 219 220 219 218 222 226 226
321 314 274 221 230 246 187 188 191 176 169 188 211 205 208 212 213 214 214 211 208 206 207 207 209 214 209 216 223 215 216 220 221 225 217 224 224 218 217 218 219 219 219 226 233
321 300 239 217 240 236 197 179 177 167 170 175 196 211 205 207 213 215 211 206 204 207 209 206 211 213 215 215 214 222 217 224 225 228 223 219 221 225 221 220 221 220 221 222 233
316 272 215 215 232 216 197 178 206 191 186 195 198 204 202 205 212 219 222 214 212 207 213 215 211 214 217 215 213 201 215 221 229 222 222 215 218 223 221 221 222 223 220 223 229
308 249 225 225 210 202 190 179 173 171 197 206 198 203 200 202 209 214 218 220 217 226 209 211 213 214 218 215 215 214 218 226 221 223 227 227 221 221 221 220 223 224 223 225 231
285 226 234 235 206 198 177 163 167 155 172 183 207 198 197 203 213 213 216 219 222 220 212 220 221 225 218 220 223 224 235 227 225 225 230 225 222 224 223 221 224 227 229 228 231
231 220 239 228 205 198 184 177 173 174 184 192 212 193 194 196 211 216 222 218 212 210 204 211 219 218 220 224 225 221 214 213 218 223 232 221 223 227 226 226 224 225 228 230 236
207 217 240 217 199 182 194 184 177 177 180 184 209 199 194 191 199 207 208 207 214 211 209 211 220 218 219 227 224 213 211 208 216 222 227 225 226 226 225 223 228 228 231 235 237
196 212 232 203 203 182 184 184 177 185 172 190 199 209 215 198 198 200 216 221 222 227 204 211 214 217 208 207 200 206 214 214 215 221 226 224 230 224 230 226 225 227 232 230 231
201 216 211 203 198 199 195 176 182 180 186 186 188 204 211 218 205 203 216 225 229 224 220 223 218 211 211 211 216 221 217 221 226 224 225 225 230 224 226 226 231 235 235 232 230
210 206 194 194 182 193 193 192 176 178 192 197 196 210 206 212 213 207 209 219 219 211 216 217 218 217 219 215 213 216 217 216 221 220 227 226 230 222 228 234 231 230 234 237 245
201 210 196 188 182 199 192 190 182 182 190 190 193 205 218 218 211 207 200 202 202 199 203 210 211 211 214 214 215 218 216 215 216 218 223 223 228 228 223 231 229 233 240 246 253
189 211 206 194 180 181 188 182 197 195 193 190 188 197 209 216 214 209 204 206 207 203 206 208 203 202 213 219 223 224 220 225 224 222 223 225 228 230 223 228 232 236 241 246 251
204 218 222 196 183 186 194 200 195 198 201 197 196 188 193 215 220 214 213 205 206 211 213 210 209 209 211 216 219 225 227 227 225 229 229 232 231 230 225 230 233 239 246 250 254
213 221 235 209 175 191 190 185 193 195 206 202 201 204 207 219 233 229 229 222 220 219 217 215 219 219 213 214 218 219 225 227 229 228 229 228 225 230 233 232 236 238 240 245 252
218 223 223 224 187 203 192 189 185 186 195 183 199 206 205 206 218 230 237 233 233 231 231 238 225 223 224 221 222 218 216 221 226 230 232 230 231 231 238 238 237 242 245 250 253
222 219 224 223 218 199 200 184 182 183 193 203 196 202 204 206 207 204 216 233 236 235 238 239 226 225 228 232 233 231 226 223 231 231 234 235 236 240 243 247 251 251 252 251 255
231 222 216 227 225 198 195 190 185 179 203 212 208 209 202 205 205 203 203 204 208 223 229 233 233 237 235 229 225 227 222 228 234 229 227 231 229 234 241 246 252 253 255 256 256
247 241 220 220 223 205 202 203 196 186 195 214 225 222 216 204 207 208 209 208 203 204 213 225 226 227 230 234 234 230 228 234 238 233 232 233 235 246 248 254 258 258 257 256 257
270 243 232 221 221 224 207 204 204 197 191 199 212 219 219 215 211 213 211 210 213 210 211 213 218 227 231 233 233 230 231 235 236 236 240 241 243 247 253 250 255 260 257 255 256
286 252 247 236 226 221 224 212 208 204 204 202 206 210 216 217 218 217 217 216 219 218 220 217 219 223 227 231 231 236 236 237 237 237 235 236 238 241 246 251 255 256 257 256 254
289 258 240 240 234 227 226 231 222 218 209 213 205 208 214 214 217 220 218 221 220 220 220 221 218 224 225 226 232 234 238 244 248 246 245 248 252 249 247 251 253 256 257 256 256
Height
5645 5640 5635 5629 5625 5623 5619 5618 5625 5635 5647 5665 5673 5689 5699 5707 5712 5721 5726 5745 5753 5760 5767 5774 5779 5786 5790 5798 5804 5808 5812 5820 5825 5831 5836 5839 5841 5843 5847 5850 5850 5850 5851 5854 5855
5627 5616 5607 5597 5587 5583 5584 5587 5594 5608 5624 5645 5659 5676 5687 5697 5705 5712 5725 5732 5745 5753 5761 5769 5775 5782 5787 5793 5799 5802 5810 5818 5824 5828 5833 5836 5839 5841 5845 5848 5849 5849 5850 5852 5855
5607 5593 5579 5564 5557 5557 5562 5567 5575 5586 5603 5627 5645 5662 5675 5684 5692 5701 5712 5719 5736 5744 5755 5763 5769 5776 5782 5788 5794 5798 5806 5814 5820 5824 5829 5833 5836 5840 5843 5845 5847 5848 5849 5851 5853
5586 5569 5552 5543 5541 5545 5551 5555 5561 5571 5588 5612 5631 5649 5663 5671 5678 5688 5701 5714 5725 5736 5745 5756 5763 5771 5778 5782 5788 5794 5802 5808 5815 5820 5825 5831 5833 5837 5840 5844 5846 5846 5848 5850 5852
5565 5545 5535 5531 5533 5539 5542 5546 5553 5562 5579 5604 5623 5638 5649 5659 5671 5685 5695 5706 5719 5727 5733 5745 5755 5763 5772 5778 5783 5789 5797 5802 5810 5816 5821 5825 5830 5833 5836 5840 5844 5844 5846 5849 5851
5549 5530 5526 5526 5530 5534 5537 5544 5550 5556 5574 5599 5609 5625 5639 5654 5666 5679 5688 5699 5709 5717 5721 5737 5747 5757 5766 5772 5777 5784 5793 5797 5804 5811 5816 5822 5825 5828 5834 5837 5841 5843 5844 5847 5849
5534 5523 5521 5524 5527 5529 5535 5540 5547 5553 5575 5591 5606 5616 5632 5647 5661 5671 5681 5690 5700 5709 5720 5729 5741 5751 5759 5764 5771 5780 5787 5792 5797 5805 5811 5817 5820 5825 5829 5833 5837 5839 5842 5845 5847
5524 5519 5520 5523 5525 5528 5532 5539 5547 5553 5567 5584 5594 5605 5620 5637 5652 5664 5674 5684 5694 5704 5715 5722 5733 5743 5753 5759 5766 5776 5782 5786 5792 5800 5806 5810 5819 5823 5827 5830 5833 5836 5840 5841 5844
5520 5517 5521 5524 5525 5529 5533 5538 5548 5550 5558 5570 5585 5597 5613 5631 5647 5658 5667 5678 5687 5698 5709 5717 5725 5735 5744 5752 5757 5766 5774 5781 5786 5793 5801 5806 5814 5817 5822 5826 5829 5832 5835 5838 5841
5517 5517 5521 5525 5527 5529 5534 5542 5549 5555 5566 5573 5581 5588 5605 5627 5639 5652 5661 5673 5682 5691 5701 5707 5715 5726 5734 5742 5748 5760 5768 5776 5782 5789 5796 5802 5810 5814 5818 5821 5824 5827 5831 5835 5838
5517 5519 5521 5525 5526 5527 5534 5543 5551 5557 5562 5572 5579 5594 5613 5625 5632 5647 5657 5669 5677 5684 5692 5701 5709 5716 5728 5738 5748 5757 5763 5774 5782 5785 5791 5798 5806 5809 5812 5815 5818 5823 5827 5830 5834
5519 5520 5522 5525 5527 5529 5535 5541 5543 5552 5564 5571 5581 5594 5608 5618 5629 5643 5655 5666 5671 5678 5686 5696 5702 5712 5721 5732 5743 5748 5756 5765 5774 5780 5784 5789 5798 5801 5805 5810 5813 5816 5820 5824 5828
5521 5522 5522 5525 5527 5534 5536 5540 5544 5553 5562 5570 5580 5590 5600 5610 5624 5639 5650 5658 5664 5672 5680 5691 5696 5704 5713 5720 5729 5742 5752 5759 5768 5774 5778 5783 5788 5792 5799 5804 5806 5810 5814 5818 5823
5522 5525 5525 5526 5531 5535 5539 5543 5548 5553 5561 5573 5579 5585 5592 5603 5619 5633 5641 5650 5657 5665 5674 5682 5692 5699 5707 5716 5725 5735 5744 5751 5759 5766 5770 5777 5779 5784 5792 5797 5799 5804 5808 5813 5816
5523 5525 5526 5528 5534 5536 5538 5542 5551 5557 5563 5570 5576 5585 5594 5603 5619 5625 5637 5644 5652 5661 5670 5678 5686 5694 5703 5710 5716 5727 5736 5744 5752 5758 5762 5767 5770 5778 5783 5788 5793 5800 5803 5805 5809
5523 5527 5529 5532 5536 5540 5542 5548 5553 5559 5562 5568 5573 5581 5594 5601 5611 5625 5634 5640 5648 5655 5663 5672 5681 5688 5695 5701 5707 5719 5728 5736 5742 5748 5751 5760 5762 5771 5775 5782 5788 5791 5793 5797 5800
5524 5527 5531 5535 5539 5542 5545 5549 5553 5559 5565 5570 5576 5582 5591 5598 5609 5619 5629 5635 5644 5650 5657 5665 5674 5682 5689 5693 5701 5710 5717 5724 5732 5737 5743 5751 5755 5761 5769 5774 5779 5783 5787 5791 5794
5527 5531 5533 5535 5542 5542 5546 5551 5554 5559 5565 5570 5577 5583 5588 5595 5603 5614 5623 5632 5640 5645 5653 5661 5669 5676 5683 5691 5698 5704 5711 5715 5722 5729 5735 5742 5744 5750 5763 5768 5774 5778 5781 5785 5786
5527 5530 5532 5534 5541 5543 5547 5550 5554 5558 5563 5571 5575 5580 5586 5591 5600 5608 5617 5628 5636 5642 5648 5656 5663 5671 5679 5685 5693 5697 5703 5711 5718 5724 5730 5736 5741 5747 5756 5763 5769 5773 5775 5777 5778
5529 5531 5534 5537 5541 5543 5547 5549 5553 5557 5563 5567 5572 5577 5585 5591 5597 5603 5611 5622 5629 5636 5644 5652 5656 5664 5672 5679 5685 5692 5702 5704 5708 5715 5721 5727 5734 5741 5749 5756 5759 5764 5768 5769 5771
5531 5531 5535 5536 5540 5544 5546 5550 5552 5555 5561 5565 5571 5576 5582 5590 5594 5600 5607 5617 5625 5632 5641 5648 5653 5660 5665 5670 5678 5685 5689 5696 5703 5710 5715 5722 5730 5737 5740 5746 5750 5755 5759 5762 5764
5531 5532 5532 5534 5538 5541 5545 5548 5550 5553 5557 5562 5567 5572 5579 5586 5591 5598 5605 5612 5619 5627 5635 5642 5647 5653 5659 5663 5671 5677 5682 5689 5694 5705 5711 5718 5726 5730 5735 5739 5742 5746 5749 5751 5753
5526 5529 5533 5532 5536 5540 5543 5547 5550 5552 5556 5560 5565 5570 5576 5583 5590 5594 5601 5606 5614 5621 5628 5635 5640 5645 5653 5657 5662 5669 5677 5683 5691 5695 5701 5709 5718 5721 5724 5727 5730 5733 5737 5740 5743
5526 5526 5529 5532 5534 5539 5542 5545 5549 5550 5553 5558 5564 5569 5574 5578 5584 5590 5595 5602 5609 5614 5619 5625 5632 5639 5646 5653 5658 5663 5669 5675 5681 5687 5692 5699 5705 5709 5715 5717 5719 5722 5725 5727 5730
5527 5525 5526 5530 5534 5537 5541 5543 5546 5549 5553 5557 5561 5565 5571 5576 5580 5585 5591 5596 5602 5608 5612 5618 5625 5632 5638 5643 5649 5653 5659 5664 5672 5678 5681 5693 5695 5699 5700 5704 5706 5709 5712 5716 5719
5527 5524 5525 5527 5531 5534 5536 5541 5545 5547 5551 5556 5559 5562 5567 5572 5576 5581 5586 5591 5595 5601 5606 5612 5619 5625 5631 5635 5641 5645 5651 5657 5661 5664 5669 5675 5684 5688 5688 5693 5697 5699 5703 5707 5710
5525 5524 5523 5524 5526 5531 5535 5538 5541 5544 5548 5552 5556 5560 5564 5568 5572 5577 5581 5585 5590 5595 5600 5606 5612 5617 5622 5627 5630 5639 5648 5651 5656 5660 5665 5668 5681 5680 5681 5682 5687 5690 5692 5694 5695